�N����,����,�~����,�C��,���x,�C��,����,���ϕ���,�ő�u�ԕ���,�ő厞����,���˗�,�I�_���x,�n�����x,�ő啗���N��,DTYPE
"20/01/12","00:10",0.0,2.8,91.9,1008.8,325.5,2.1,2.7,324.2,0.00,1.7,7.8,"00:01:04",1
"20/01/12","00:20",0.0,2.8,92.3,1009.0,310.7,1.3,2.1,324.9,0.00,1.7,7.4,"00:18:24",1
"20/01/12","00:30",0.0,2.7,92.5,1008.3,314.3,2.0,2.6,316.1,0.00,1.6,7.5,"00:27:36",1
"20/01/12","00:40",0.0,2.5,92.7,1008.6,293.1,1.5,2.2,323.6,0.00,1.5,7.6,"00:30:32",1
"20/01/12","00:50",0.0,2.5,93.0,1008.3,304.6,2.1,2.6,316.1,0.00,1.5,7.3,"00:44:56",1
"20/01/12","01:00",0.0,2.5,93.2,1008.6,308.6,2.3,2.7,319.3,0.00,1.6,7.5,"00:55:20",1
"20/01/12","01:10",0.0,2.6,93.4,1008.1,289.9,1.7,2.1,305.1,0.00,1.7,7.3,"01:00:16",1
"20/01/12","01:20",0.0,3.0,93.5,1008.3,301.0,1.2,1.8,289.9,0.00,2.1,7.4,"01:10:08",1
"20/01/12","01:30",0.0,3.0,93.6,1008.3,309.5,1.7,2.6,322.1,0.00,2.1,7.3,"01:28:24",1
"20/01/12","01:40",0.0,2.6,93.9,1008.8,309.1,1.7,2.2,305.4,0.00,1.8,7.2,"01:32:16",1
"20/01/12","01:50",0.0,2.6,94.1,1008.6,319.5,1.0,1.9,311.2,0.00,1.8,7.1,"01:48:08",1
"20/01/12","02:00",0.0,2.4,94.2,1008.6,310.1,2.1,3.2,322.3,0.00,1.6,7.1,"01:54:24",1
"20/01/12","02:10",0.0,2.4,94.4,1008.6,301.8,1.5,2.0,316.5,0.00,1.6,7.1,"02:03:12",1
"20/01/12","02:20",0.0,2.3,94.6,1008.6,296.9,1.7,2.2,317.3,0.00,1.6,7.1,"02:16:16",1
"20/01/12","02:30",0.0,2.5,94.8,1008.3,293.4,1.7,2.2,308.4,0.00,1.8,7.3,"02:24:32",1
"20/01/12","02:40",0.0,2.8,94.8,1008.1,291.4,1.6,2.1,264.7,0.00,2.1,7.2,"02:30:08",1
"20/01/12","02:50",0.0,2.9,94.8,1008.6,298.6,1.5,2.4,331.0,0.00,2.2,7.1,"02:46:24",1
"20/01/12","03:00",0.0,2.4,94.9,1008.3,306.5,2.0,2.6,319.8,0.00,1.7,7.1,"02:54:32",1
"20/01/12","03:10",0.0,2.2,95.2,1008.3,301.7,1.7,2.1,313.1,0.00,1.6,7.1,"03:08:16",1
"20/01/12","03:20",0.0,2.1,95.3,1008.1,319.8,2.3,2.7,323.8,0.00,1.5,6.9,"03:17:04",1
"20/01/12","03:30",0.0,2.0,95.4,1007.8,303.8,2.0,2.5,315.8,0.00,1.4,7.1,"03:22:56",1
"20/01/12","03:40",0.0,2.1,95.6,1007.4,294.9,2.0,2.2,300.6,0.00,1.5,7.1,"03:38:08",1
"20/01/12","03:50",0.0,2.2,95.6,1007.6,299.7,2.0,2.6,312.8,0.00,1.6,6.9,"03:41:12",1
"20/01/12","04:00",0.0,2.3,95.7,1007.1,313.8,2.3,2.9,321.3,0.00,1.7,6.8,"03:57:36",1
"20/01/12","04:10",0.0,2.1,95.9,1007.4,314.0,2.1,2.6,317.9,0.00,1.6,6.8,"04:07:12",1
"20/01/12","04:20",0.0,2.2,96.0,1007.1,308.8,2.0,2.6,314.8,0.00,1.7,6.9,"04:11:44",1
"20/01/12","04:30",0.0,2.3,96.0,1007.4,294.0,1.0,2.1,306.4,0.00,1.8,7.0,"04:29:04",1
"20/01/12","04:40",0.0,2.4,96.2,1007.1,305.3,1.8,2.5,329.6,0.00,1.9,6.7,"04:39:28",1
"20/01/12","04:50",0.0,2.7,96.1,1006.4,324.6,1.8,2.7,319.1,0.00,2.2,6.8,"04:46:56",1
"20/01/12","05:00",0.0,2.8,96.2,1006.7,311.3,1.5,1.9,312.4,0.00,2.3,6.7,"04:59:42",1
"20/01/12","05:10",0.0,2.7,96.3,1006.4,304.2,1.5,2.0,316.4,0.00,2.2,6.7,"05:02:00",1
"20/01/12","05:20",0.0,2.9,96.4,1006.4,288.9,1.5,1.9,296.2,0.00,2.4,7.0,"05:14:34",1
"20/01/12","05:30",0.0,3.2,96.4,1006.9,296.4,1.7,2.8,304.6,0.00,2.7,7.0,"05:24:16",1
"20/01/12","05:40",0.0,3.4,96.4,1006.9,316.7,1.7,3.2,329.0,0.00,2.9,7.0,"05:31:28",1
"20/01/12","05:50",0.0,3.4,96.4,1006.7,295.0,0.8,1.6,312.8,0.00,2.9,6.9,"05:42:50",1
"20/01/12","06:00",0.0,3.3,96.5,1006.9,288.8,1.0,1.9,323.2,0.00,2.8,6.7,"05:52:16",1
"20/01/12","06:10",0.0,3.5,96.6,1006.7,275.7,0.5,1.2,280.2,0.00,3.1,6.7,"06:09:48",1
"20/01/12","06:20",0.0,3.6,96.6,1006.4,330.7,1.0,1.8,324.8,0.00,3.2,6.9,"06:12:34",1
"20/01/12","06:30",0.0,3.6,96.6,1006.7,303.1,1.3,2.2,323.6,0.00,3.2,7.0,"06:25:06",1
"20/01/12","06:40",0.0,3.6,96.8,1006.7,284.9,1.1,1.7,313.5,0.00,3.2,6.5,"06:30:16",1
"20/01/12","06:50",0.0,3.7,96.8,1006.9,289.7,1.3,2.1,325.6,0.00,3.3,6.8,"06:49:44",1
"20/01/12","07:00",0.0,3.8,96.8,1007.6,333.0,1.5,2.0,329.3,0.00,3.4,6.9,"06:54:48",1
"20/01/12","07:10",0.0,3.8,96.9,1007.1,324.9,1.7,2.2,324.0,0.00,3.4,7.0,"07:05:20",1
"20/01/12","07:20",0.0,3.8,96.9,1007.4,282.9,1.2,1.9,266.8,0.00,3.4,7.1,"07:18:00",1
"20/01/12","07:30",0.0,3.9,97.0,1007.1,268.5,1.2,1.9,269.1,0.00,3.5,6.9,"07:24:32",1
"20/01/12","07:40",0.0,4.0,97.0,1006.9,307.7,0.6,1.2,316.9,0.00,3.6,6.8,"07:38:00",1
"20/01/12","07:50",0.0,4.0,97.0,1007.1,298.8,0.5,1.1,299.4,0.00,3.6,7.0,"07:40:02",1
"20/01/12","08:00",0.0,4.0,97.1,1007.1,315.5,1.7,2.6,323.4,0.00,3.6,6.8,"07:57:28",1
"20/01/12","08:10",0.0,4.0,97.2,1006.9,316.2,1.8,2.2,315.6,0.00,3.6,6.9,"08:00:56",1
"20/01/12","08:20",0.0,4.2,97.2,1006.9,287.6,1.5,1.9,317.6,0.00,3.8,7.2,"08:13:20",1
"20/01/12","08:30",0.0,4.3,97.2,1007.1,290.0,1.6,2.1,303.8,0.00,3.9,7.0,"08:25:36",1
"20/01/12","08:40",0.0,4.5,97.2,1007.4,288.6,1.3,1.9,299.3,0.00,4.1,7.1,"08:30:16",1
"20/01/12","08:50",0.0,4.6,97.3,1007.1,297.8,1.3,1.6,307.8,0.01,4.2,6.9,"08:41:28",1
"20/01/12","09:00",0.0,4.9,97.3,1007.1,307.3,1.7,2.2,317.2,0.02,4.5,7.1,"08:50:02",1
"20/01/12","09:10",0.0,5.1,97.2,1007.4,317.6,2.2,2.7,323.7,0.01,4.7,7.2,"09:04:48",1
"20/01/12","09:20",0.0,5.2,97.2,1007.6,306.6,2.0,3.1,319.7,0.01,4.8,7.4,"09:13:36",1
"20/01/12","09:30",0.0,5.3,97.3,1007.1,314.0,2.1,2.7,320.9,0.01,4.9,7.2,"09:26:24",1
"20/01/12","09:40",0.0,5.5,97.2,1007.1,298.0,1.0,2.1,317.6,0.02,5.1,7.3,"09:30:40",1
"20/01/12","09:50",0.0,5.7,97.2,1007.6,276.5,0.6,1.2,274.7,0.02,5.3,7.2,"09:40:24",1
"20/01/12","10:00",0.0,5.8,97.2,1007.6,263.6,1.2,1.6,251.3,0.02,5.4,7.6,"09:53:12",1
"20/01/12","10:10",0.0,6.1,97.2,1007.6,291.2,0.8,1.2,309.3,0.04,5.7,7.4,"10:04:50",1
"20/01/12","10:20",0.0,6.1,97.1,1007.6,349.4,0.2,0.8,332.9,0.04,5.7,7.4,"10:15:20",1
"20/01/12","10:30",0.0,6.3,97.2,1007.8,313.3,0.3,1.0,295.3,0.05,5.9,7.5,"10:27:28",1
"20/01/12","10:40",0.0,6.6,97.0,1007.6,283.5,1.1,1.8,318.7,0.05,6.2,7.4,"10:30:02",1
"20/01/12","10:50",0.0,6.8,97.0,1007.6,302.9,1.5,1.8,312.1,0.05,6.4,7.7,"10:44:48",1
"20/01/12","11:00",0.0,7.0,96.9,1007.6,310.2,1.5,2.2,312.8,0.05,6.6,7.7,"10:59:52",1
"20/01/12","11:10",0.0,7.1,96.9,1007.4,317.0,2.0,2.5,317.9,0.03,6.7,7.7,"11:00:16",1
"20/01/12","11:20",0.0,7.1,96.8,1007.1,304.2,1.0,1.7,321.5,0.03,6.7,7.7,"11:11:04",1
"20/01/12","11:30",0.0,7.0,96.8,1007.4,305.2,0.2,1.0,289.5,0.04,6.6,7.6,"11:25:52",1
"20/01/12","11:40",0.0,6.7,96.3,1007.1,254.6,1.5,2.5,248.3,0.04,6.2,7.8,"11:37:04",1
"20/01/12","11:50",0.0,6.9,96.4,1007.1,257.2,1.7,2.8,240.1,0.04,6.4,7.9,"11:42:56",1
"20/01/12","12:00",0.0,7.2,96.4,1007.1,270.9,1.6,2.4,251.1,0.05,6.7,8.0,"11:51:44",1
"20/01/12","12:10",0.0,7.2,96.0,1007.1,274.7,1.8,2.6,276.7,0.02,6.6,8.1,"12:02:56",1
"20/01/12","12:20",0.0,7.1,95.8,1006.9,280.4,1.5,2.2,305.1,0.01,6.5,8.0,"12:13:36",1
"20/01/12","12:30",0.0,7.1,95.8,1006.2,272.0,1.3,1.8,311.0,0.02,6.5,8.1,"12:29:52",1
"20/01/12","12:40",0.0,7.2,95.7,1006.7,285.8,1.6,2.4,274.1,0.03,6.6,8.0,"12:38:08",1
"20/01/12","12:50",0.0,7.2,95.5,1006.4,282.8,1.8,2.7,268.4,0.04,6.6,8.0,"12:41:12",1
"20/01/12","13:00",0.0,7.3,95.2,1005.7,269.4,1.5,2.0,256.5,0.05,6.6,8.3,"12:52:24",1
"20/01/12","13:10",0.0,7.3,95.0,1005.7,273.2,1.6,2.0,277.8,0.04,6.6,8.0,"13:07:26",1
"20/01/12","13:20",0.0,7.4,94.7,1005.7,268.2,1.3,1.9,279.3,0.03,6.6,8.2,"13:10:16",1
"20/01/12","13:30",0.0,7.4,94.3,1006.2,268.9,1.3,2.0,255.5,0.03,6.6,8.2,"13:28:48",1
"20/01/12","13:40",0.0,7.4,94.1,1005.5,266.5,1.1,1.6,253.3,0.03,6.6,8.4,"13:32:24",1
"20/01/12","13:50",0.0,7.7,93.8,1005.7,307.6,1.3,1.9,313.8,0.03,6.8,8.3,"13:45:36",1
"20/01/12","14:00",0.0,7.7,93.5,1005.7,306.9,0.8,1.9,316.9,0.03,6.8,8.2,"13:54:00",1
"20/01/12","14:10",0.0,7.8,93.0,1005.5,277.3,0.6,1.2,297.2,0.04,6.8,8.4,"14:00:16",1
"20/01/12","14:20",0.0,7.9,92.8,1005.0,299.9,1.2,1.7,302.6,0.04,6.8,8.3,"14:12:24",1
"20/01/12","14:30",0.0,8.1,92.6,1005.2,321.0,1.0,1.4,299.0,0.07,7.0,8.3,"14:29:20",1
"20/01/12","14:40",0.0,8.5,92.0,1005.5,277.7,0.8,1.7,288.7,0.12,7.3,8.4,"14:30:56",1
"20/01/12","14:50",0.0,9.2,91.3,1005.2,288.6,1.3,1.9,236.2,0.21,7.9,8.5,"14:49:36",1
"20/01/12","15:00",0.0,8.9,90.4,1005.5,245.8,1.1,2.1,244.7,0.13,7.5,8.6,"14:51:04",1
"20/01/12","15:10",0.0,9.0,89.3,1005.2,261.8,0.8,1.2,264.5,0.13,7.4,8.8,"15:01:36",1
"20/01/12","15:20",0.0,9.0,87.8,1005.7,250.6,0.7,1.2,317.5,0.11,7.1,8.7,"15:14:40",1
"20/01/12","15:30",0.0,9.1,86.3,1005.5,246.5,1.0,1.7,256.5,0.11,7.0,8.6,"15:24:16",1
"20/01/12","15:40",0.0,9.4,84.4,1005.5,193.7,0.8,1.6,140.2,0.15,6.9,8.8,"15:34:24",1
"20/01/12","15:50",0.0,9.4,82.2,1005.5,233.1,1.1,2.1,225.8,0.11,6.6,9.0,"15:43:36",1
"20/01/12","16:00",0.0,9.3,80.2,1005.2,244.7,1.0,1.8,204.0,0.08,6.1,9.0,"15:54:08",1
"20/01/12","16:10",0.0,9.4,79.2,1005.5,239.5,0.7,1.2,283.8,0.06,6.0,9.2,"16:02:16",1
"20/01/12","16:20",0.0,9.4,78.8,1005.5,272.5,0.7,1.8,315.1,0.04,5.9,9.1,"16:13:52",1
"20/01/12","16:30",0.0,9.3,78.7,1005.0,182.6,0.6,1.3,225.2,0.03,5.8,9.2,"16:22:24",1
"20/01/12","16:40",0.0,9.0,78.8,1005.0,265.2,0.6,1.4,257.0,0.02,5.6,9.4,"16:38:56",1
"20/01/12","16:50",0.0,9.0,78.8,1005.0,282.2,0.7,1.4,321.0,0.01,5.6,9.2,"16:49:06",1
"20/01/12","17:00",0.0,8.9,78.8,1005.2,312.5,1.1,2.2,320.8,0.00,5.5,9.1,"16:50:02",1
"20/01/12","17:10",0.0,8.8,78.8,1005.0,310.9,1.5,2.2,321.4,0.00,5.4,9.1,"17:00:08",1
"20/01/12","17:20",0.0,8.6,79.0,1005.0,306.7,1.2,1.4,327.3,0.00,5.2,9.2,"17:18:24",1
"20/01/12","17:30",0.0,8.5,79.8,1005.0,329.2,1.6,2.0,327.0,0.00,5.3,9.2,"17:27:20",1
"20/01/12","17:40",0.0,8.1,80.5,1004.5,306.4,1.5,2.0,312.7,0.00,5.0,9.1,"17:32:08",1
"20/01/12","17:50",0.0,7.9,81.3,1004.8,306.7,1.6,1.8,318.0,0.00,4.9,9.0,"17:40:08",1
"20/01/12","18:00",0.0,7.7,82.2,1004.5,309.9,1.8,2.4,324.2,0.00,4.9,9.0,"17:58:32",1
"20/01/12","18:10",0.0,7.4,83.3,1005.0,310.1,2.1,2.6,321.9,0.00,4.8,8.9,"18:04:32",1
"20/01/12","18:20",0.0,7.1,84.0,1005.0,296.4,1.5,1.8,305.9,0.00,4.6,8.8,"18:11:52",1
"20/01/12","18:30",0.0,6.9,84.6,1005.0,302.3,1.1,1.4,308.4,0.00,4.5,8.7,"18:20:08",1
"20/01/12","18:40",0.0,6.9,85.1,1004.8,282.1,1.5,2.2,276.1,0.00,4.6,8.7,"18:38:08",1
"20/01/12","18:50",0.0,7.0,85.7,1005.0,288.6,1.7,2.1,299.1,0.00,4.8,8.9,"18:49:52",1
"20/01/12","19:00",0.0,7.0,86.1,1004.8,300.8,1.6,2.1,317.7,0.00,4.9,8.9,"18:51:12",1
"20/01/12","19:10",0.0,7.1,86.5,1005.2,294.6,1.6,2.1,306.8,0.00,5.0,8.7,"19:08:40",1
"20/01/12","19:20",0.0,7.0,87.0,1005.5,322.3,1.8,2.6,324.0,0.00,5.0,8.7,"19:11:36",1
"20/01/12","19:30",0.0,6.8,87.4,1005.0,315.5,1.6,2.6,317.2,0.00,4.9,8.6,"19:20:32",1
"20/01/12","19:40",0.0,6.6,87.8,1005.0,304.2,1.0,1.7,308.6,0.00,4.8,8.6,"19:30:02",1
"20/01/12","19:50",0.0,6.3,88.3,1005.0,313.9,2.1,2.6,321.6,0.00,4.6,8.6,"19:46:24",1
"20/01/12","20:00",0.0,5.9,88.7,1005.2,305.9,1.6,2.0,316.9,0.00,4.2,8.3,"19:59:44",1
"20/01/12","20:10",0.0,5.7,89.1,1005.5,300.5,1.6,2.1,317.1,0.00,4.1,8.5,"20:00:08",1
"20/01/12","20:20",0.0,5.6,89.5,1005.2,312.9,1.6,2.0,320.0,0.00,4.1,8.4,"20:14:00",1
"20/01/12","20:30",0.0,5.6,89.9,1005.2,306.5,1.7,2.5,316.9,0.00,4.1,8.4,"20:29:24",1
"20/01/12","20:40",0.0,5.5,90.2,1005.2,307.3,1.6,2.4,312.7,0.00,4.1,8.2,"20:34:32",1
"20/01/12","20:50",0.0,5.5,90.5,1005.0,299.5,1.5,2.4,323.4,0.00,4.1,8.2,"20:45:44",1
"20/01/12","21:00",0.0,5.4,90.7,1005.2,286.7,1.0,1.3,265.9,0.00,4.0,8.3,"20:54:54",1
"20/01/12","21:10",0.0,5.5,91.0,1005.0,297.6,1.8,2.7,310.6,0.00,4.2,8.2,"21:07:30",1
"20/01/12","21:20",0.0,5.5,91.2,1005.5,316.6,1.6,2.5,315.5,0.00,4.2,8.1,"21:17:14",1
"20/01/12","21:30",0.0,5.2,91.7,1005.2,314.7,1.2,2.2,319.9,0.00,4.0,7.9,"21:26:34",1
"20/01/12","21:40",0.0,5.2,92.0,1005.0,297.7,1.3,2.1,319.2,0.00,4.0,7.9,"21:38:00",1
"20/01/12","21:50",0.0,4.8,92.2,1005.5,280.1,1.1,1.6,262.0,0.00,3.7,8.1,"21:44:32",1
"20/01/12","22:00",0.0,4.9,92.5,1005.2,315.5,1.8,2.5,315.9,0.00,3.8,7.9,"21:51:36",1
"20/01/12","22:10",0.0,4.8,92.8,1005.5,326.5,1.6,2.4,324.3,0.00,3.8,7.8,"22:01:20",1
"20/01/12","22:20",0.0,4.7,93.1,1005.5,286.9,1.5,3.5,323.5,0.00,3.7,7.9,"22:18:48",1
"20/01/12","22:30",0.0,4.8,93.3,1005.5,297.7,1.5,2.5,322.1,0.00,3.9,8.0,"22:20:32",1
"20/01/12","22:40",0.0,4.9,93.4,1005.2,295.2,0.8,1.6,259.9,0.00,4.0,7.8,"22:31:20",1
"20/01/12","22:50",0.0,5.0,93.6,1005.7,320.7,1.5,2.6,313.8,0.00,4.1,7.7,"22:41:12",1
"20/01/12","23:00",0.0,4.9,93.8,1005.7,327.8,2.0,2.5,343.9,0.00,4.0,7.8,"22:52:40",1
"20/01/12","23:10",0.0,4.5,94.0,1005.7,299.3,1.5,2.2,328.0,0.00,3.7,7.7,"23:00:16",1
"20/01/12","23:20",0.0,4.6,94.3,1006.0,302.5,1.8,2.2,276.5,0.00,3.8,7.7,"23:16:16",1
"20/01/12","23:30",0.0,4.9,94.4,1005.7,331.0,1.7,2.4,317.6,0.00,4.1,7.4,"23:20:08",1
"20/01/12","23:40",0.0,4.7,94.5,1005.7,292.1,1.5,2.4,316.6,0.00,3.9,7.6,"23:30:16",1
"20/01/12","23:50",0.0,4.4,94.7,1005.5,300.0,1.3,1.9,313.3,0.00,3.7,7.8,"23:47:28",1
"20/01/12","24:00",0.0,4.5,95.1,1006.0,301.0,1.6,3.3,333.3,0.00,3.8,7.6,"23:59:20",1
